Theta_e
311 310 310 311 311 309 302 293 295 303 306 298 294 294 299 302 305 306 305 304 302 299 299 298 298 299 301 306 304 298 298 293 289 293 299 301 297 294 293 287 287 287 284 285
310 310 310 310 311 309 298 293 295 308 306 293 293 297 301 302 301 302 302 301 302 301 297 294 299 301 305 306 302 298 296 290 284 289 291 295 296 297 296 293 289 286 283 287
310 310 310 310 310 310 300 297 295 300 299 296 294 293 295 296 302 303 303 301 302 299 298 299 297 300 304 306 306 310 302 290 288 287 290 292 293 296 296 293 285 287 288 290
310 310 310 310 310 310 299 299 296 298 292 295 294 293 295 296 297 302 302 300 301 298 294 295 295 300 302 303 308 302 297 291 291 294 295 297 296 294 295 291 290 287 290 292
310 310 310 310 309 309 304 298 298 300 296 296 293 295 295 297 299 298 298 298 301 299 296 295 294 297 296 297 300 298 296 292 294 292 297 296 293 294 295 293 294 292 292 292
309 310 309 310 310 307 297 300 301 299 295 295 294 295 298 299 299 300 302 301 300 300 301 302 302 301 300 299 297 295 294 292 289 286 293 293 287 293 293 294 295 294 289 293
309 309 310 309 309 309 299 299 300 296 292 296 296 300 301 299 299 296 303 302 295 303 306 302 300 298 298 298 297 297 292 290 288 284 288 279 292 300 298 295 297 298 297 299
309 309 310 309 309 310 305 299 301 297 293 298 299 300 299 299 299 299 301 304 304 303 299 294 291 292 293 297 300 295 295 291 285 282 281 291 297 300 297 294 293 299 298 300
307 308 310 308 309 310 309 300 302 299 294 293 301 299 298 295 294 296 300 304 305 301 295 292 285 285 290 291 295 301 299 296 292 291 287 285 295 302 305 303 288 299 299 297
308 307 309 308 308 309 311 302 301 300 295 298 299 296 295 298 295 293 295 299 301 300 292 289 287 287 294 289 290 291 291 292 290 291 288 294 302 304 305 286 287 298 298 295
308 308 309 309 307 309 311 301 303 302 296 298 302 303 297 298 296 292 296 295 297 297 291 291 290 290 293 291 295 293 291 292 291 292 289 285 302 300 291 293 294 296 295 294
309 309 310 308 307 309 310 298 306 306 300 300 303 305 306 304 303 298 295 296 296 299 294 293 293 295 296 294 287 298 289 294 290 291 290 296 296 295 296 296 295 295 294 294
309 307 306 307 307 310 311 300 306 302 299 298 297 298 303 306 305 303 295 295 300 299 300 296 296 292 292 288 290 292 296 296 291 290 293 294 295 296 296 296 296 295 295 294
309 307 307 307 308 310 313 302 305 301 298 292 295 305 302 306 306 304 301 302 300 300 299 294 292 291 295 291 292 292 294 294 292 292 293 295 296 296 295 297 296 295 295 294
309 308 307 307 309 311 311 305 303 300 298 291 294 299 300 301 303 303 301 300 298 296 295 294 292 292 293 290 290 289 294 292 291 289 296 294 294 296 297 295 295 294 294 293
309 308 309 309 310 310 302 301 305 299 301 295 288 295 298 300 300 300 299 300 298 296 295 294 295 296 293 288 286 293 296 297 296 295 297 296 296 297 297 294 295 295 294 294
309 308 309 310 311 308 299 296 299 302 300 295 290 290 297 300 299 298 297 297 296 296 293 293 294 293 291 288 286 292 297 298 297 298 297 294 296 294 296 296 296 297 296 296
308 308 309 311 309 306 303 300 306 303 298 296 288 289 294 299 294 294 296 294 294 294 293 293 292 291 289 286 290 295 299 298 298 297 297 296 296 296 295 295 295 293 293 294
308 310 309 304 302 301 303 310 307 301 298 290 289 287 288 296 294 294 295 294 291 293 291 291 292 288 287 292 293 297 298 297 297 296 296 295 295 294 294 293 292 292 292 293
310 305 300 296 300 307 308 300 297 295 294 292 289 291 290 294 293 292 292 290 289 287 290 293 289 288 294 296 297 299 299 298 298 294 293 293 293 292 292 292 292 293 293 293
302 297 295 297 305 301 298 291 289 288 287 290 290 291 291 296 292 292 292 289 288 286 289 290 286 287 292 297 298 299 298 298 298 299 298 295 294 292 292 293 294 294 293 293
301 299 301 301 297 292 291 286 287 286 286 289 290 291 293 295 298 297 295 289 290 286 292 290 285 290 294 296 296 297 298 299 299 299 297 295 294 294 293 293 293 293 294 295
301 299 296 292 289 286 286 284 286 283 288 291 292 291 296 296 298 294 293 288 287 291 287 287 289 293 295 296 296 296 298 299 298 297 295 295 295 296 294 293 294 294 295 296
296 293 286 288 286 287 285 286 288 291 291 292 293 291 295 296 293 290 288 289 289 285 283 285 290 293 295 296 297 296 295 296 296 295 295 295 295 294 295 295 295 295 295 297
293 294 284 286 289 290 291 292 292 294 295 294 292 292 295 293 293 290 288 286 285 285 285 287 291 294 295 296 296 295 295 294 294 295 294 295 294 294 293 294 295 296 297 299
296 294 290 291 290 292 293 292 293 295 296 295 295 290 291 290 291 287 286 285 284 286 288 292 293 294 295 296 296 296 296 295 294 294 295 295 294 293 293 295 296 297 298 299
294 291 293 291 292 292 293 294 293 295 296 291 291 288 286 288 285 285 287 285 288 290 292 294 294 295 295 297 297 297 297 295 295 294 294 294 294 294 294 294 296 297 299 302
Wind_Speed
20 21 23 23 25 32 10 3 3 5 5 6 1 2 2 5 5 5 3 4 3 2 2 3 2 3 3 6 2 3 1 4 2 5 3 3 2 3 4 5 5 1 3 8
18 20 22 23 22 23 4 3 3 5 4 3 3 5 3 3 7 5 6 3 3 3 3 4 4 3 3 6 3 3 3 2 4 10 8 5 4 2 3 3 3 4 3 7
17 18 20 22 22 21 3 3 5 6 7 1 3 5 5 6 6 3 3 4 4 5 5 6 2 4 5 3 4 7 7 3 7 6 8 4 5 5 3 4 3 4 7 4
18 19 20 22 23 22 2 4 1 2 4 5 4 1 3 5 7 6 7 5 5 2 3 3 3 4 5 4 3 3 4 2 3 4 5 2 4 5 5 2 4 4 7 1
17 17 17 20 23 22 5 3 3 4 2 3 4 6 5 5 6 5 5 5 4 3 5 2 2 2 2 2 4 3 3 2 1 3 2 5 1 6 3 4 3 3 5 5
15 15 15 18 22 12 3 2 1 4 4 5 3 3 4 5 5 4 6 2 3 6 3 1 1 3 3 5 4 3 2 5 3 5 3 3 4 4 4 3 6 2 4 3
14 14 14 15 16 9 1 1 1 4 2 2 1 5 3 5 5 2 4 5 2 3 7 3 2 3 4 2 6 2 6 5 3 3 4 1 1 6 8 7 4 3 4 3
14 13 13 12 12 12 2 1 2 2 0 1 4 5 4 4 5 6 4 6 2 5 5 4 5 6 6 3 7 4 3 5 3 3 2 2 3 2 2 1 3 2 1 4
15 13 11 11 10 9 1 2 1 2 4 3 3 2 2 1 3 6 4 5 5 6 4 4 2 3 2 5 2 4 5 5 5 2 2 3 2 3 5 3 4 4 1 5
15 12 10 10 9 8 3 3 2 2 2 4 1 2 1 2 2 1 3 7 7 4 3 2 2 3 2 2 2 4 4 4 3 3 3 4 3 3 2 4 6 1 1 3
12 9 10 8 8 8 3 4 3 3 1 5 2 0 2 2 2 2 4 4 4 4 4 2 2 2 1 3 1 3 3 2 1 1 1 3 3 2 2 3 2 3 3 2
9 8 9 7 7 8 1 3 1 1 3 5 2 5 5 5 6 6 2 4 3 3 4 0 1 1 1 2 2 2 1 5 4 6 5 2 2 1 2 1 4 2 3 3
10 11 11 10 7 10 4 2 3 2 2 5 4 3 3 2 4 4 4 2 3 0 3 3 1 1 3 2 4 1 0 2 2 3 1 1 2 3 3 4 5 4 4 4
11 10 8 6 8 8 4 1 1 1 3 2 6 3 4 4 3 2 3 6 4 4 2 2 2 2 2 3 2 3 4 3 4 2 0 1 1 3 5 7 6 6 5 3
11 7 6 7 8 7 1 2 2 1 4 3 5 6 2 5 3 6 5 5 3 2 1 1 3 1 2 2 2 2 3 6 5 6 6 4 3 7 6 6 4 4 4 4
11 4 5 6 6 5 2 2 1 1 2 3 2 4 4 4 4 5 4 3 3 3 3 2 3 2 3 3 2 5 3 2 3 1 5 3 7 7 4 5 5 4 5 4
7 4 5 4 6 2 2 4 3 1 1 3 3 5 4 3 3 2 3 3 1 3 1 1 1 1 4 3 3 4 2 3 5 7 9 6 2 5 6 6 6 6 5 4
5 5 6 4 6 4 1 2 2 2 4 3 2 5 3 1 1 1 1 2 2 3 1 1 1 2 2 1 5 2 4 6 5 5 4 5 9 7 6 5 4 4 4 2
5 5 9 3 2 1 1 6 3 2 4 2 2 4 4 2 1 1 3 2 1 2 1 2 3 1 3 6 6 7 8 7 9 7 8 8 9 7 6 5 4 4 2 2
12 2 2 1 2 6 7 4 3 4 3 2 3 1 3 3 1 1 2 2 2 1 4 1 2 4 5 2 5 7 9 10 12 9 5 5 4 6 5 4 3 4 3 2
1 2 1 2 4 2 3 1 1 1 2 3 3 5 2 1 4 3 2 3 0 1 4 2 2 4 3 6 2 6 8 8 6 6 5 5 7 7 6 4 5 4 4 2
2 4 3 0 3 4 1 3 1 3 6 3 4 5 5 1 2 3 1 3 1 3 1 2 2 5 2 2 4 7 8 8 8 8 9 7 7 7 6 5 5 3 2 1
1 4 3 3 2 3 5 7 4 4 4 4 3 2 3 1 2 3 3 2 4 1 2 3 5 1 2 4 6 9 8 11 9 9 7 7 7 5 5 5 3 3 2 2
2 3 4 3 5 5 5 5 4 5 3 4 3 2 2 1 4 2 3 2 2 2 0 4 3 4 5 4 3 9 7 8 8 7 6 7 6 5 5 5 4 3 2 3
2 3 5 6 5 5 4 4 3 2 1 4 2 3 3 3 4 2 2 2 1 3 4 4 2 5 7 6 5 7 8 7 6 5 6 6 6 6 4 3 2 2 1 3
3 3 2 2 3 2 2 2 1 2 2 1 2 3 4 1 3 3 4 6 4 3 3 4 2 6 7 6 6 6 6 6 5 5 6 5 6 6 5 3 2 1 2 3
3 3 4 3 3 1 2 1 1 2 2 3 3 4 3 2 3 2 3 4 3 3 4 2 3 6 6 6 7 7 6 6 6 5 5 5 5 5 4 5 1 2 3 3
Wind_Direction
0 357 355 351 354 347 39 30 50 315 358 54 36 135 215 299 330 356 12 91 102 111 40 58 76 99 52 342 35 56 356 130 285 265 300 231 68 119 112 108 296 213 176 267
360 357 355 350 358 6 340 41 275 317 51 97 343 310 315 328 350 352 355 54 52 43 70 81 42 69 8 15 70 140 180 25 19 348 355 1 51 354 125 116 86 227 161 276
357 358 355 350 352 358 56 38 7 331 39 22 72 8 347 337 346 30 36 29 59 72 47 23 93 31 359 15 76 67 82 118 151 189 227 206 306 317 344 140 151 238 233 248
355 358 356 353 349 349 71 27 340 187 352 342 14 5 346 342 359 5 25 28 35 101 99 59 58 7 360 34 11 65 97 184 190 259 261 270 258 338 330 100 284 183 321 67
355 355 358 354 350 342 70 74 35 355 345 296 8 2 8 2 328 12 352 85 23 52 95 100 141 52 38 291 350 55 9 229 163 278 15 14 41 6 71 37 5 66 32 44
351 352 357 357 1 359 65 322 351 106 316 346 61 333 306 334 314 24 54 35 53 48 49 212 256 203 209 217 196 210 156 139 105 262 350 337 12 14 71 77 31 31 49 327
344 347 346 360 356 22 114 268 84 76 292 62 6 334 343 359 337 330 353 31 85 327 325 338 48 343 315 306 310 179 150 117 104 236 10 330 248 27 93 98 59 74 77 64
338 335 337 349 350 344 16 297 76 105 112 285 329 348 347 351 343 22 10 358 348 300 36 42 12 342 10 63 24 65 105 109 82 123 139 343 261 27 322 212 251 221 299 331
331 328 326 336 342 325 350 272 147 101 113 261 303 308 2 35 344 355 339 334 329 52 76 70 108 257 279 335 45 51 60 81 110 86 85 262 282 292 328 188 301 209 343 325
320 320 316 326 332 308 329 290 175 98 114 268 38 112 164 101 78 188 309 338 354 27 58 82 151 269 269 337 29 345 11 7 66 106 225 248 241 225 355 105 248 151 30 38
325 316 306 313 317 292 326 269 207 127 157 279 269 316 79 38 70 103 285 31 349 24 63 118 213 159 284 69 326 133 115 42 217 87 237 304 1 314 234 205 16 90 63 40
301 309 306 299 300 270 217 300 310 141 151 239 291 265 238 205 195 140 24 175 216 204 88 325 117 113 27 136 282 53 62 185 196 171 222 271 323 347 39 132 112 66 72 34
293 309 296 280 264 265 227 266 309 47 51 319 10 308 335 83 190 169 112 278 204 185 166 168 132 228 126 166 243 186 74 122 133 63 213 133 79 70 61 62 93 78 63 68
301 309 294 261 236 264 237 236 340 85 100 118 281 328 290 327 138 120 121 142 65 97 82 106 134 178 160 210 216 164 201 118 140 280 181 112 194 103 121 94 91 90 68 69
305 296 246 224 234 262 176 246 239 193 137 200 275 299 267 293 177 124 100 93 100 90 49 95 234 211 104 7 60 271 177 179 165 223 204 151 179 147 127 126 132 127 114 87
303 280 225 217 248 151 75 326 117 345 179 94 343 289 308 344 131 125 102 103 96 103 140 234 273 269 105 111 201 257 237 217 192 275 115 74 114 116 115 118 127 101 93 117
282 233 262 243 197 130 153 188 236 324 98 83 326 326 289 306 84 45 73 50 102 119 151 245 217 286 88 118 187 251 222 110 107 122 108 60 174 168 139 120 106 96 101 96
228 237 261 141 126 97 278 289 337 62 91 72 154 266 350 333 96 92 24 89 29 7 233 330 200 26 70 262 240 187 112 108 110 22 29 126 116 103 105 101 111 105 113 97
224 137 134 110 66 169 246 322 41 68 129 183 168 173 209 16 82 105 36 72 66 310 249 259 88 335 223 225 184 185 175 171 146 76 76 90 115 126 125 115 126 127 131 97
130 94 71 172 220 321 325 11 19 13 339 53 216 146 236 107 62 28 91 33 161 153 253 47 98 253 256 282 234 183 157 137 135 113 107 118 131 147 141 166 161 162 153 138
175 120 152 253 273 84 30 28 142 281 276 200 232 191 177 273 118 172 174 164 176 80 268 134 303 284 269 334 142 137 121 123 98 91 104 129 145 147 144 144 142 148 153 148
197 128 98 338 46 55 113 224 295 202 229 209 174 209 198 248 144 119 121 123 77 225 247 76 286 257 336 74 96 99 120 114 102 110 118 119 121 135 142 138 145 167 154 170
271 51 67 80 264 142 198 202 224 240 210 196 176 191 168 115 73 72 92 104 222 74 56 234 232 321 92 103 110 92 95 103 102 97 93 107 118 129 131 134 141 158 169 311
40 141 157 211 210 222 186 192 213 235 189 155 149 124 163 154 70 113 116 210 93 76 143 243 265 188 153 122 105 116 109 107 110 114 118 125 130 122 122 133 153 161 104 350
230 204 201 211 245 246 210 198 279 265 189 135 118 63 84 39 102 51 94 110 209 196 224 239 265 161 147 144 131 126 125 129 130 132 133 138 131 128 124 145 148 116 35 360
242 240 294 223 232 258 94 97 256 335 123 155 47 84 70 117 115 122 205 148 207 241 234 256 162 159 154 146 134 126 127 136 140 143 143 138 140 150 157 137 127 79 358 331
270 242 235 226 266 105 78 28 331 316 101 71 84 89 160 110 90 182 181 190 217 253 281 287 177 169 155 132 128 134 137 143 147 143 145 149 139 134 128 139 142 11 317 313